Location: Koussan�
(15.2012°N, 12.5548°W)
Time: 12:13:53
(UTC+00:00)

GENESIS II - Pass Details

Date: 20 October 2020
Orbit: 490 x 536 km, 64.5° (Epoch: 26 November)

Event Time Altitude Azimuth Distance (km) Brightness Sun altitude
Rises 18:53:50 0° 206° (SSW) 2,639 8.3 -7.3°
Reaches altitude 10° 18:56:00 10° 208° (SSW) 1,759 7.4 -7.8°
Maximum altitude 18:59:57 76° 294° (WNW) 549 4.4 -8.8°
Drops below altitude 10° 19:03:56 10° 19° (NNE) 1,780 6.6 -9.7°
Sets 19:06:08 0° 21° (NNE) 2,674 7.5 -10.2°
